This demonstration page uses our WeatherBlox Daily Observations layout. Learn more.

40.92945, -100.16068

Hourly Observations for January 2, 2018

Temp ( °F °C ) Dew Point ( °F °C ) Humidity (%) Winds ( mph kmh ) Pressure ( in mb ) Visibility ( mi km ) Precip ( " mm )
12:15 am 00:15 Clear -2 -19 -7 -21.7 79 79 ESE 3 6 30.86 1045 10 16.0934 0 0
12:35 am 00:35 Clear -5 -20.6 -10 -23.1 81 81 Calm 30.89 1046 10 16.0934 0 0
12:55 am 00:55 Clear -9 -22.6 -14 -25.3 79 79 E 3 6 30.92 1047 10 16.0934 0 0
1:15 am 01:15 Clear -8 -22.4 -13 -25 79 79 Calm 30.92 1047 10 16.0934 0 0
1:35 am 01:35 Clear -8 -22.1 -12 -24.7 80 80 Calm 30.92 1047 10 16.0934 0 0
1:55 am 01:55 Clear -7 -21.6 -12 -24.2 80 80 Calm 30.89 1046 10 16.0934 0 0
2:15 am 02:15 Clear -5 -20.6 -10 -23.1 81 81 Calm 30.89 1046 10 16.0934 0 0
2:35 am 02:35 Clear -9 -22.5 -13 -25.2 79 79 Calm 30.92 1047 10 16.0934 0 0
2:55 am 02:55 Clear -8 -22.4 -13 -25.2 78 78 Calm 30.92 1047 10 16.0934 0 0
3:15 am 03:15 Clear -8 -22.3 -13 -25 79 79 Calm 30.92 1047 10 16.0934 0 0
3:35 am 03:35 Clear -9 -22.7 -14 -25.6 77 77 Calm 30.89 1046 10 16.0934 0 0
3:55 am 03:55 Clear -9 -22.5 -14 -25.4 77 77 Calm 30.89 1046 10 16.0934 0 0
4:15 am 04:15 Clear -9 -22.7 -14 -25.7 77 77 Calm 30.89 1046 10 16.0934 0 0
4:35 am 04:35 Clear -9 -22.6 -14 -25.6 77 77 Calm 30.89 1046 10 16.0934 0 0
4:55 am 04:55 Clear -11 -23.7 -16 -26.9 75 75 Calm 30.89 1046 10 16.0934 0 0
5:15 am 05:15 Clear -11 -23.9 -17 -27 76 76 Calm 30.86 1045 10 16.0934 0 0
5:35 am 05:35 Clear -11 -24 -17 -27.1 76 76 Calm 30.86 1045 10 16.0934 0 0
5:55 am 05:55 Clear -10 -23.6 -16 -26.8 75 75 Calm 30.86 1045 10 16.0934 0 0
6:15 am 06:15 Clear -11 -23.8 -17 -27 75 75 Calm 30.86 1045 10 16.0934 0 0
6:35 am 06:35 Clear -12 -24.3 -18 -27.5 75 75 Calm 30.86 1045 10 16.0934 0 0
6:55 am 06:55 Clear -12 -24.2 -17 -27.4 75 75 Calm 30.86 1045 10 16.0934 0 0
7:15 am 07:15 Clear -12 -24.5 -18 -27.7 75 75 NNW 5 7 30.86 1045 10 16.0934 0 0
7:35 am 07:35 Clear -10 -23.6 -16 -26.8 75 75 WNW 3 6 30.86 1045 10 16.0934 0 0
7:55 am 07:55 Clear -12 -24.3 -18 -27.6 74 74 WSW 3 6 30.83 1044 10 16.0934 0 0
8:15 am 08:15 Sunny -9 -22.6 -14 -25.6 77 77 W 5 7 30.83 1044 10 16.0934 0 0
8:35 am 08:35 Sunny -7 -21.7 -12 -24.6 77 77 SW 6 9 30.77 1042 10 16.0934 0 0
8:55 am 08:55 Sunny -4 -20.1 -10 -23.1 77 77 W 3 6 30.74 1041 10 16.0934 0 0
9:15 am 09:15 Sunny -4 -20 -9 -23 77 77 WNW 3 6 30.74 1041 10 16.0934 0 0
9:35 am 09:35 Sunny -2 -18.7 -6 -21.3 80 80 W 7 11 30.74 1041 10 16.0934 0 0
9:55 am 09:55 Sunny 0 -18 -5 -20.6 80 80 SW 7 11 30.74 1041 10 16.0934 0 0
10:15 am 10:15 Sunny 5 -15 0 -18 78 78 WSW 6 9 30.68 1039 10 16.0934 0 0
10:35 am 10:35 Sunny 7 -14.1 0 -18 73 73 W 10 17 30.68 1039 10 16.0934 0 0
10:55 am 10:55 Sunny 8 -13.5 -1 -18.3 67 67 W 7 11 30.65 1038 10 16.0934 0 0
11:15 am 11:15 Sunny 10 -12.5 0 -18 64 64 W 10 17 30.62 1037 10 16.0934 0 0
11:35 am 11:35 Sunny 11 -11.7 1 -17.1 65 65 SW 10 17 30.62 1037 10 16.0934 0 0
11:55 am 11:55 Sunny 12 -11.3 2 -16.6 65 65 SW 9 15 30.59 1036 10 16.0934 0 0
12:15 pm 12:15 Sunny 12 -10.9 3 -16.1 66 66 SW 12 19 30.59 1036 10 16.0934 0 0
12:35 pm 12:35 Sunny 13 -10.3 4 -15.4 67 67 WSW 10 17 30.53 1034 10 16.0934 0 0
12:55 pm 12:55 Sunny 13 -10.3 4 -15.3 67 67 WSW 9 15 30.53 1034 10 16.0934 0 0
1:15 pm 13:15 Sunny 14 -9.9 6 -14.6 69 69 WSW 8 13 30.53 1034 10 16.0934 0 0
1:35 pm 13:35 Sunny 15 -9.5 6 -14.3 68 68 W 13 20 30.53 1034 10 16.0934 0 0
1:55 pm 13:55 Sunny 15 -9.5 6 -14.3 68 68 WSW 10 17 30.5 1033 10 16.0934 0 0
2:15 pm 14:15 Sunny 16 -9 7 -14 67 67 W 12 19 30.5 1033 10 16.0934 0 0
2:35 pm 14:35 Sunny 17 -8.5 8 -13.6 67 67 WSW 10 17 30.45 1031 10 16.0934 0 0
2:55 pm 14:55 Sunny 17 -8.1 8 -13.5 65 65 W 13 20 30.48 1032 10 16.0934 0 0
3:15 pm 15:15 Sunny 18 -7.7 8 -13.2 65 65 WSW 9 15 30.45 1031 10 16.0934 0 0
3:35 pm 15:35 Sunny 19 -7.3 9 -12.7 66 66 WSW 9 15 30.45 1031 10 16.0934 0 0
3:55 pm 15:55 Sunny 19 -7 10 -12.4 66 66 WSW 7 11 30.45 1031 10 16.0934 0 0
4:15 pm 16:15 Sunny 20 -6.7 10 -12.1 66 66 WSW 10 17 30.42 1030 10 16.0934 0 0
4:35 pm 16:35 Sunny 21 -6.3 11 -11.9 65 65 WSW 8 13 30.42 1030 10 16.0934 0 0
4:55 pm 16:55 Sunny 20 -6.8 11 -11.9 67 67 WSW 8 13 30.42 1030 10 16.0934 0 0
5:15 pm 17:15 Sunny 21 -6.3 11 -11.5 67 67 W 9 15 30.42 1030 10 16.0934 0 0
5:35 pm 17:35 Clear 20 -6.7 11 -11.5 69 69 W 7 11 30.42 1030 10 16.0934 0 0
5:55 pm 17:55 Clear 20 -6.7 11 -11.4 70 70 W 6 9 30.42 1030 10 16.0934 0 0
6:15 pm 18:15 Partly Cloudy 20 -6.6 12 -11.3 70 70 W 8 13 30.39 1029 10 16.0934 0 0
6:35 pm 18:35 Mostly Cloudy 20 -6.6 12 -10.9 72 72 W 8 13 30.39 1029 10 16.0934 0 0
6:55 pm 18:55 Cloudy 21 -6.1 13 -10.6 71 71 W 12 19 30.36 1028 10 16.0934 0 0
7:15 pm 19:15 Cloudy 22 -5.5 13 -10.5 68 68 W 10 17 30.36 1028 10 16.0934 0 0
7:35 pm 19:35 Mostly Cloudy 22 -5.8 13 -10.5 70 70 W 10 17 30.36 1028 10 16.0934 0 0
7:55 pm 19:55 Clear 20 -6.8 12 -11.2 71 71 WNW 9 15 30.39 1029 10 16.0934 0 0
8:15 pm 20:15 Clear 18 -7.6 11 -11.6 73 73 WNW 10 17 30.39 1029 10 16.0934 0 0
8:35 pm 20:35 Clear 17 -8.1 10 -12 74 74 WNW 8 13 30.39 1029 10 16.0934 0 0
8:55 pm 20:55 Partly Cloudy 18 -7.9 11 -11.6 75 75 WNW 10 17 30.39 1029 10 16.0934 0 0
9:15 pm 21:15 Partly Cloudy 17 -8.2 11 -11.8 76 76 WNW 9 15 30.39 1029 10 16.0934 0 0
9:35 pm 21:35 Partly Cloudy 19 -7 12 -11.1 73 73 WNW 15 24 30.42 1030 10 16.0934 0 0
9:55 pm 21:55 Mostly Cloudy 19 -7 12 -11 73 73 NW 10 17 30.42 1030 10 16.0934 0 0
10:15 pm 22:15 Mostly Cloudy 19 -7.4 12 -11 76 76 WNW 15 24 30.42 1030 10 16.0934 0 0
10:35 pm 22:35 Clear 18 -7.7 11 -11.5 74 74 NW 10 17 30.42 1030 10 16.0934 0 0
10:55 pm 22:55 Clear 17 -8.4 11 -11.7 77 77 WNW 10 17 30.42 1030 10 16.0934 0 0
11:15 pm 23:15 Clear 16 -8.7 10 -12 77 77 WNW 7 11 30.42 1030 10 16.0934 0 0
11:35 pm 23:35 Clear 16 -9.1 10 -12.3 78 78 WNW 9 15 30.45 1031 10 16.0934 0 0
11:55 pm 23:55 Clear 14 -9.9 8 -13.1 78 78 WNW 9 15 30.45 1031 10 16.0934 0 0

Powered by AerisWeather